Chicopee, MA

12:21 AM EST on December 15, 2019 (GMT -0500)
Westover Air Reserve Base / Metropolitan Airport

Weather History for KCEF - September, 2019

Change the Weather History Date:

Thursday, September 19, 2019

  Actual Average Record
Temperature  
Mean Temperature 53 °F -  
Max Temperature 70 °F 70 °F 82 °F (2015)
Min Temperature 36 °F 49 °F 38 °F (2011)
Degree Days  
Heating Degree Days 12    
Growing Degree Days 3 (Base 50)    
Moisture  
Dew Point 40 °F    
Average Humidity 72    
Maximum Humidity 98    
Minimum Humidity 26    
Precipitation  
Precipitation 0.00 in - - ()
Sea Level Pressure  
Sea Level Pressure 30.32 in    
Wind  
Wind Speed 1 mph ()    
Max Wind Speed 6 mph    
Max Gust Speed -    
Visibility 10.0 miles    
Events Fog    
Averages and records for this station are not official NWS values.
T = Trace of Precipitation, MM = Missing Value Source: Averaged Metar Reports

Daily Weather History Graph

Daily Weather History Graph

Search for Another Location

Airport or City:

Astronomy

Sep. 19, 2019 Rise Set
Actual Time 6:34 AM EDT 6:53 PM EDT
Civil Twilight 6:06 AM EDT 7:21 PM EDT
Nautical Twilight 5:33 AM EDT 7:53 PM EDT
Astronomical Twilight 4:59 AM EDT 8:27 PM EDT
Moon 9:54 PM EDT (9/19) 11:39 AM EDT (9/19)
Length of Visible Light 13h 15m
Length of Day
12h 19m
Waning Gibbous, 74% of the Moon is Illuminated
Sep 19
Waning Gibbous
Sep 21
Last Quarter
Sep 28
New
Oct 5
First Quarter
Oct 13
Full

Hourly Weather History & Observations

Time (EDT) Temp. Windchill Dew Point Humidity Pressure Visibility Wind Dir Wind Speed Gust Speed Precip Events Conditions
12:56 AM 39.9 °F - 38.3 °F 94% 30.36 in 10.0 mi Calm Calm - N/A   Clear
1:56 AM 39.2 °F - 38.1 °F 96% 30.36 in 10.0 mi Calm Calm - N/A   Clear
2:56 AM 38.1 °F 35.7 °F 37.0 °F 96% 30.36 in 10.0 mi ENE 3.5 mph - N/A   Clear
3:56 AM 37.8 °F - 37.0 °F 97% 30.36 in 10.0 mi Calm Calm - N/A   Clear
4:56 AM 36.7 °F - 36.0 °F 97% 30.35 in 10.0 mi Calm Calm - N/A   Clear
5:56 AM 36.5 °F - 35.8 °F 97% 30.35 in 10.0 mi Calm Calm - N/A   Clear
6:56 AM 36.1 °F - 35.4 °F 97% 30.35 in 10.0 mi Calm Calm - N/A Fog Shallow Fog
7:56 AM 40.3 °F 38.2 °F 39.7 °F 98% 30.35 in 10.0 mi North 3.5 mph - N/A   Partly Cloudy
9:56 AM 52.3 °F - 43.2 °F 71% 30.39 in 10.0 mi North 4.6 mph - N/A   Clear
10:56 AM 58.6 °F - 41.5 °F 53% 30.38 in 10.0 mi NW 4.6 mph - N/A   Clear
11:56 AM 63.0 °F - 38.8 °F 41% 30.36 in 10.0 mi NNW 4.6 mph - N/A   Clear
12:56 PM 64.2 °F - 37.4 °F 37% 30.34 in 10.0 mi Calm Calm - N/A   Clear
1:56 PM 67.1 °F - 37.8 °F 34% 30.32 in 10.0 mi Calm Calm - N/A   Clear
2:56 PM 68.2 °F - 38.7 °F 34% 30.31 in 10.0 mi East 3.5 mph - N/A   Clear
3:56 PM 69.8 °F - 37.8 °F 31% 30.30 in 10.0 mi SSE 5.8 mph - N/A   Clear
4:56 PM 70.3 °F - 33.8 °F 26% 30.29 in 10.0 mi Calm Calm - N/A   Clear
5:56 PM 69.1 °F - 37.2 °F 31% 30.27 in 10.0 mi South 3.5 mph - N/A   Partly Cloudy
6:56 PM 58.5 °F - 45.5 °F 62% 30.30 in 10.0 mi Calm Calm - N/A   Partly Cloudy
7:56 PM 50.9 °F - 47.5 °F 88% 30.28 in 10.0 mi Calm Calm - N/A   Clear
8:56 PM 47.8 °F - 45.3 °F 91% 30.28 in 10.0 mi Calm Calm - N/A   Clear
9:56 PM 46.2 °F - 44.8 °F 95% 30.27 in 10.0 mi Calm Calm - N/A   Clear
10:56 PM 44.6 °F - 43.3 °F 95% 30.27 in 10.0 mi Calm Calm - N/A   Clear
11:56 PM 43.9 °F - 42.8 °F 96% 30.26 in 9.0 mi Calm Calm - N/A   Clear